Theta_e
311 310 310 310 309 309 310 310 310 311 311 311 312 312 312 313 313 315 315 314 313 312 312 312 313 313 314 315 316 314 308 309 311 311 313 314 314 314 315 314 315 315 314 314 314
311 311 310 310 309 309 310 310 311 311 311 312 312 312 313 314 316 318 315 312 312 312 311 312 312 313 314 316 316 310 307 308 309 310 314 314 314 315 314 314 314 314 313 313 314
311 311 310 309 309 309 310 311 311 311 312 312 313 314 316 318 319 315 312 311 311 311 312 312 313 314 314 316 315 311 310 309 313 313 314 314 314 315 314 313 313 313 312 311 312
312 311 310 309 309 310 310 311 311 311 312 313 315 318 319 319 317 314 312 311 311 311 312 313 313 314 312 312 315 314 314 313 315 315 315 314 314 313 313 312 312 312 311 311 312
311 310 309 309 309 310 311 311 311 311 313 315 318 319 318 317 318 319 315 312 312 311 312 313 313 314 312 312 313 315 314 314 315 315 313 313 313 313 311 310 310 310 310 311 311
311 310 309 309 309 310 311 311 311 312 315 318 318 317 317 315 317 317 317 317 313 313 313 312 313 314 313 312 312 312 312 312 313 313 312 312 311 311 308 309 310 309 309 310 310
310 309 308 308 309 310 311 311 311 314 318 318 317 317 318 318 317 316 316 316 316 315 312 312 312 314 313 312 312 312 311 309 310 310 310 310 311 309 308 308 309 308 308 308 308
308 308 308 309 310 311 311 310 313 317 318 317 317 318 317 318 317 317 316 315 315 313 312 312 313 314 314 312 310 310 308 312 310 310 311 311 313 306 308 308 306 306 306 306 306
308 308 309 309 310 310 310 312 316 318 317 317 318 318 317 315 315 316 315 314 314 313 312 313 314 313 312 308 309 306 312 309 309 309 310 310 312 305 306 308 305 304 304 304 304
309 309 310 310 310 311 312 316 317 316 316 318 319 317 317 315 314 314 314 313 313 313 313 314 313 307 305 308 313 311 309 308 309 310 310 310 310 303 304 306 303 302 302 303 304
314 313 312 312 313 315 316 317 316 317 317 317 318 317 315 315 313 312 312 312 312 312 310 309 308 310 308 307 309 307 309 311 309 309 311 310 309 304 302 302 301 300 300 301 302
316 315 316 316 316 316 316 316 317 318 319 319 319 317 316 314 312 310 311 311 310 308 307 307 307 308 306 306 308 307 309 309 308 308 308 309 308 303 301 301 301 299 299 300 300
317 316 317 317 316 315 316 316 318 320 319 319 319 319 319 316 314 311 311 311 309 307 307 308 311 306 307 306 307 307 308 308 311 309 306 306 308 305 301 300 300 299 299 300 301
320 318 317 317 316 316 316 315 318 321 316 315 316 318 318 317 314 315 311 312 309 309 307 308 308 310 308 308 307 309 307 308 309 311 313 306 313 307 302 301 299 299 299 300 301
325 320 317 316 316 317 316 316 318 318 317 313 313 313 314 317 313 311 310 310 308 309 310 314 309 310 310 310 308 311 307 308 308 307 308 308 310 308 302 302 300 298 299 299 299
324 323 319 317 316 316 317 318 320 317 320 315 309 308 312 309 308 308 309 310 311 309 309 311 309 308 310 308 308 304 306 305 303 305 311 309 310 309 305 304 301 299 299 299 298
323 323 320 318 316 316 320 321 320 321 314 311 310 308 312 307 307 307 307 307 311 313 311 309 308 307 307 307 306 307 310 313 311 311 314 306 307 309 305 303 302 300 299 299 298
320 321 322 319 317 317 320 320 320 319 316 307 307 307 313 307 307 307 307 309 307 309 309 314 314 308 305 308 308 308 310 314 314 310 309 307 311 311 303 302 302 301 301 300 298
321 320 320 320 319 317 317 321 318 316 315 309 307 308 308 306 307 306 307 308 310 307 315 312 314 306 306 306 307 308 310 308 308 300 309 309 307 305 301 300 299 300 300 299 298
314 321 321 320 320 318 318 318 317 316 311 309 315 310 310 306 306 306 306 306 310 307 309 311 312 308 306 307 307 308 307 312 308 310 309 307 307 308 305 302 298 297 299 299 298
314 319 319 320 319 318 319 317 316 318 316 311 315 313 308 308 307 306 307 307 307 307 309 309 311 310 307 308 310 309 310 308 308 306 307 305 306 302 304 302 300 299 300 300 299
316 318 319 319 317 318 319 316 315 316 317 315 313 316 310 309 308 306 307 306 307 308 311 308 309 309 309 306 304 308 309 308 310 308 304 306 308 302 302 301 301 300 301 301 300
316 317 317 319 321 319 317 318 316 316 317 318 316 314 312 313 313 308 305 307 308 308 311 309 310 307 308 308 306 307 307 307 305 304 305 308 306 301 301 300 302 302 302 302 301
315 314 313 313 315 318 318 318 319 315 315 315 314 312 312 313 312 311 309 307 307 308 310 310 309 313 318 312 308 308 307 306 309 304 307 309 306 304 303 302 301 302 303 303 302
314 312 312 311 313 315 316 315 316 316 312 313 312 315 316 318 315 314 308 305 306 308 306 309 315 306 303 303 304 304 307 306 308 310 311 309 308 304 305 303 304 305 303 303 302
310 308 308 308 312 314 314 316 316 315 313 313 315 315 313 317 317 316 307 307 309 304 306 304 310 305 304 301 300 305 304 305 306 306 307 305 306 303 305 303 302 304 302 302 301
303 304 304 308 308 313 314 314 313 314 310 311 312 314 313 312 308 305 305 307 306 306 306 308 303 309 311 297 300 308 303 303 303 301 306 306 306 295 297 298 302 303 302 301 300
Wind_Speed
4 4 4 4 4 5 5 5 5 5 6 7 7 8 9 9 10 10 9 3 3 5 5 4 3 1 2 4 4 3 4 2 5 6 2 2 2 1 4 2 1 2 3 4 8
7 7 7 6 7 6 7 7 7 7 7 8 9 9 10 10 10 10 4 2 3 5 5 5 4 2 2 2 2 4 3 6 4 4 3 1 1 5 2 4 1 2 3 8 11
11 11 10 10 9 9 8 9 9 9 9 9 10 10 9 10 10 1 3 4 5 7 7 4 2 1 2 2 2 3 4 3 2 4 1 1 1 2 1 1 1 5 7 4 3
14 14 13 13 12 11 11 10 10 10 10 10 10 10 10 8 2 1 4 4 5 6 5 3 1 1 3 2 1 1 2 3 1 2 1 2 2 3 5 1 7 4 5 7 6
17 16 15 15 14 14 13 12 12 11 11 11 10 11 10 6 7 7 6 6 6 7 6 4 3 4 4 4 3 2 1 3 4 8 9 7 7 4 4 1 8 6 4 3 4
19 18 17 16 15 15 15 14 13 13 12 12 12 11 9 6 8 8 8 9 9 9 9 6 3 4 4 3 3 2 3 8 8 7 7 5 1 3 6 7 6 3 4 3 4
21 19 18 17 17 16 16 16 15 14 13 13 12 11 12 16 11 8 8 9 9 9 8 8 6 5 6 3 1 1 3 6 3 2 4 7 2 4 5 5 5 4 5 5 5
22 21 20 19 18 18 17 17 16 15 15 13 12 10 9 12 12 13 14 10 9 8 8 8 8 6 3 6 4 3 4 3 1 1 1 4 3 3 4 3 4 4 4 4 5
24 22 21 20 20 19 17 17 16 16 14 13 11 8 8 11 10 14 12 11 10 9 8 8 9 4 5 5 4 5 3 4 6 1 2 1 4 4 9 4 7 6 5 5 6
26 24 23 21 20 19 17 16 15 15 15 14 14 6 13 7 8 10 13 11 9 11 9 7 4 3 3 4 5 6 4 4 5 2 2 1 7 4 10 6 7 7 7 8 9
25 24 23 22 20 19 17 12 11 8 14 12 5 6 3 10 9 10 14 15 11 9 5 4 4 9 12 9 3 5 4 5 2 3 0 5 7 3 5 7 6 8 10 12 15
23 23 21 19 19 18 15 10 9 4 8 16 23 20 14 10 8 14 17 12 9 6 8 4 7 8 5 5 4 4 4 5 4 2 5 1 7 2 4 3 4 8 10 14 17
23 22 20 17 17 19 19 17 12 7 6 9 21 24 25 23 14 20 24 11 5 6 8 8 4 9 8 4 6 5 6 5 6 0 0 2 5 4 2 8 10 11 13 15 17
24 23 21 19 17 21 22 14 12 1 3 6 7 8 17 18 7 17 25 10 4 11 8 6 4 6 4 6 8 6 8 6 5 4 4 1 4 4 4 4 7 15 17 19 20
30 27 26 25 15 17 16 16 13 5 5 3 5 7 13 12 13 8 23 10 8 7 7 6 7 5 4 6 7 6 6 7 3 4 1 2 1 6 4 7 7 14 17 18 20
31 33 29 28 29 20 11 18 18 3 12 3 5 6 7 3 3 6 7 5 6 5 1 4 2 6 7 3 4 10 7 6 4 3 2 6 6 4 6 6 8 18 24 23 22
30 32 39 38 39 28 19 27 4 8 1 6 5 6 3 5 4 5 7 7 7 6 6 1 4 4 6 6 3 2 6 1 1 1 5 1 3 6 4 3 11 22 29 26 25
29 25 40 43 38 34 33 9 10 9 9 3 5 5 7 7 4 6 7 8 7 3 4 8 5 11 6 7 8 7 7 5 7 4 2 1 6 5 2 2 5 22 30 27 27
31 27 38 45 41 38 31 14 11 6 8 10 4 4 5 4 6 5 8 6 12 11 9 7 6 1 3 4 4 6 5 3 7 2 2 4 4 3 2 1 3 19 31 32 30
34 38 37 37 46 45 16 18 10 10 8 5 17 9 13 10 9 8 10 7 7 14 4 7 2 1 3 5 4 4 7 3 2 3 5 3 3 5 5 7 6 13 29 34 30
29 14 30 31 39 32 13 12 14 8 19 9 14 10 7 9 11 7 8 2 7 13 14 6 4 1 4 6 10 3 4 2 4 3 5 1 5 5 6 9 14 21 32 36 34
27 8 18 30 15 6 15 11 17 16 19 11 5 13 11 11 12 12 15 9 19 20 16 9 5 4 7 2 2 1 7 7 5 5 3 2 5 2 3 11 20 25 35 35 33
19 11 21 42 9 12 3 17 11 14 15 18 13 9 5 13 11 12 9 6 19 16 18 11 5 3 4 3 2 6 5 4 5 3 8 5 4 0 1 8 21 23 29 31 30
16 4 8 15 6 11 15 11 14 11 10 18 5 6 5 9 7 7 9 4 10 9 14 19 5 10 13 5 7 7 7 6 6 4 6 9 6 6 6 8 15 23 25 28 28
19 5 9 4 8 11 8 9 12 7 8 12 4 20 20 12 15 14 4 4 2 7 2 8 11 4 2 2 3 4 9 12 13 12 9 7 12 10 12 12 22 25 22 24 26
12 8 5 2 9 15 13 12 19 20 11 8 16 17 15 24 23 17 9 7 7 3 4 1 5 4 4 2 3 3 7 8 9 4 7 3 9 7 17 12 13 18 23 23 23
8 8 4 8 4 11 13 18 14 15 7 9 15 11 13 8 5 6 7 8 9 8 3 8 6 4 5 3 4 6 11 12 6 5 10 11 9 5 5 10 17 18 23 22 18
Wind_Direction
252 261 275 285 289 293 293 298 304 308 311 316 317 318 318 319 317 315 312 286 240 213 207 208 189 153 77 81 75 97 66 159 193 162 190 68 57 190 312 284 12 51 54 318 295
265 269 271 271 279 282 287 290 294 299 302 304 308 311 314 318 319 309 278 240 203 193 180 159 143 103 71 72 67 84 107 213 192 193 141 82 100 313 326 320 9 347 301 291 271
270 273 271 272 268 271 274 282 288 293 296 299 305 308 314 323 324 290 163 142 144 147 147 146 151 1 101 89 57 127 164 193 232 209 225 156 284 203 232 22 125 316 327 39 77
259 264 267 266 266 267 269 274 279 286 290 295 300 303 308 314 301 222 195 186 177 178 184 194 242 131 103 110 129 104 184 198 260 197 220 275 281 270 232 154 298 277 103 74 76
259 259 262 263 265 268 271 273 279 282 285 290 295 298 304 289 260 250 238 222 213 214 222 244 208 164 143 138 133 149 265 205 247 264 275 266 259 263 328 173 133 141 140 81 47
257 258 258 260 263 268 272 275 276 279 283 289 294 295 294 257 259 254 245 239 234 236 239 233 206 181 124 136 159 178 277 282 276 253 253 207 204 170 95 131 132 124 80 41 5
252 253 257 258 261 267 272 273 275 278 284 288 291 291 279 268 262 250 243 238 234 229 227 215 200 179 151 125 143 115 311 316 286 278 215 170 124 76 103 141 92 51 23 13 15
251 251 253 257 262 266 270 271 273 277 283 286 287 288 261 256 247 246 243 232 218 212 205 195 186 165 150 127 40 59 50 344 316 359 343 172 228 161 30 235 80 61 49 35 26
249 251 253 257 261 263 264 268 272 275 279 281 281 264 260 248 235 233 226 217 208 196 181 174 167 146 135 100 16 9 222 220 315 10 153 137 248 95 26 81 84 72 70 66 60
250 251 252 255 258 258 259 263 270 274 271 272 257 263 235 230 214 211 206 195 179 177 152 165 142 88 53 116 216 194 202 240 234 234 132 192 270 81 43 71 97 103 97 89 84
247 248 250 252 253 254 255 260 270 261 234 216 218 201 217 211 203 196 190 178 158 163 155 149 127 210 194 197 121 136 170 209 211 243 310 252 256 47 80 84 105 108 104 99 93
245 246 246 247 246 244 239 216 218 247 289 247 242 243 242 213 189 192 182 175 172 166 125 71 225 217 134 155 149 149 161 237 283 207 175 338 263 93 70 91 125 125 111 104 101
243 243 243 240 238 236 233 226 232 277 267 256 237 234 230 223 215 195 187 187 155 142 191 173 202 157 140 145 169 203 188 194 213 248 80 344 281 198 99 129 139 142 135 128 119
241 238 235 229 232 234 235 221 218 268 281 252 214 221 202 197 232 200 194 181 179 188 160 227 219 155 163 192 161 205 200 172 158 127 230 99 270 264 182 173 179 166 161 150 140
240 232 228 226 221 212 233 201 183 167 282 201 158 173 164 180 145 176 182 187 161 167 143 227 167 169 179 207 166 223 129 149 133 131 88 242 152 257 138 217 201 196 179 165 151
241 234 223 217 219 224 192 163 150 86 242 191 134 156 132 165 139 114 161 155 147 114 335 230 191 167 193 117 163 147 84 55 57 83 270 215 182 248 195 198 179 189 186 176 163
243 242 221 218 212 207 177 155 160 203 168 187 188 168 145 154 161 162 168 173 161 139 205 186 213 182 149 97 73 189 118 138 349 238 230 75 164 257 220 191 187 184 188 181 171
248 251 238 223 218 194 177 176 210 221 206 101 117 99 173 156 197 172 142 188 241 127 127 174 250 170 190 180 176 188 172 165 199 199 222 7 223 247 138 222 231 195 186 181 180
249 246 238 220 214 200 174 202 213 167 178 132 76 125 216 216 161 150 196 203 199 182 185 177 247 71 69 133 148 183 190 148 105 59 81 210 274 252 151 126 155 178 186 190 187
247 239 244 244 222 197 201 204 226 189 127 132 207 178 182 185 163 189 176 197 200 186 190 208 127 279 170 108 49 164 151 90 3 189 244 260 266 235 212 193 163 179 190 194 191
245 231 232 229 214 199 205 216 220 197 181 171 209 202 198 173 181 199 211 244 202 189 174 153 132 203 128 210 171 149 167 79 127 154 177 235 249 216 212 176 187 194 195 195 195
239 252 202 200 196 203 215 194 216 210 221 225 210 207 184 174 183 201 207 217 189 159 186 187 133 163 208 285 327 197 182 167 163 213 241 163 253 154 230 195 187 195 198 199 200
223 258 198 188 205 209 175 218 211 201 208 220 221 199 165 199 218 201 195 195 172 172 173 179 196 93 357 335 322 214 194 146 102 79 185 155 248 228 185 164 199 200 201 203 205
214 221 244 217 183 192 204 209 211 198 226 213 210 154 154 203 233 190 209 195 198 192 178 166 157 202 218 192 145 187 186 178 169 162 174 224 185 214 196 192 193 207 208 205 208
206 222 201 213 224 200 188 164 204 195 219 208 221 212 203 219 208 215 177 146 115 194 150 146 209 130 63 58 102 187 175 181 200 211 198 204 226 191 198 200 203 210 204 200 204
194 180 216 245 193 205 194 211 214 217 187 208 232 209 204 218 209 199 159 199 168 202 193 116 166 134 160 28 58 263 229 198 206 214 248 165 245 191 209 195 184 202 193 194 202
184 180 198 185 199 193 207 213 214 199 201 220 219 223 210 219 105 81 58 127 138 151 146 154 139 140 190 125 124 274 208 190 179 181 183 209 226 154 179 186 194 197 199 208 223